Regional Weather Roundup
Issued by NWS

Home | Current Version | Previous Version | Graphics & Text | Print | Product List | Glossary On
Versions: 1 2 3 4 5 6 7 8 9 10 11 12 13 14 15 16 17 18 19 20 21 22 23 24 25 26 27 28 29 30 31 32 33 34 35 36 37 38 39 40 41 42 43 44 45 46 47 48 49 50
000
ASUS45 KABQ 230901
RWRNM
WEATHER ROUNDUP FOR NEW MEXICO
NATIONAL WEATHER SERVICE ALBUQUERQUE NM
200 AM MST SUN NOV 23 2014

NOTE: "FAIR" MEANS FEW OR NO CLOUDS BELOW 12,000 FEET AGL WITH NO
       SIGNIFICANT WEATHER OR OBSTRUCTIONS TO VISION.

      THIS PRODUCT IS RELEASED AS TWO VERSIONS.  ONE VERSION NEAR
      THE TOP OF THE HOUR CONTAINING PRELIMINARY DATA FROM ALBUQUERQUE
      AND OTHER STATIONS.  A FINAL VERSION WITH ADDITIONAL DATA IS
      ISSUED ABOUT 10 MINUTES AFTER THE HOUR.

NMZ501-503-504-510>518-231000-
NORTHWEST PLATEAU/NORTHCENTRAL MOUNTAINS

CITY           SKY/WX    TMP DP  RH WIND       PRES   REMARKS
FARMINGTON     CLOUDY    40  32  73 VRB3      29.81R
LOS ALAMOS     PTCLDY    41  19  40 W20G32    29.77F
SANTA FE       PTCLDY    33  13  43 N6        29.77F WCI  28
TAOS           CLOUDY    34  25  69 SE5       29.79S WCI  30
ANGEL FIRE     PTSUNNY   33  22  63 W18       29.77F WCI  22

$$
NMZ402-403-502-505>509-231000-
WESTCENTRAL MOUNTAINS/SOUTHWEST MOUNTAINS

CITY           SKY/WX    TMP DP  RH WIND       PRES   REMARKS
GALLUP         PTCLDY    37  17  44 SW12      29.89F WCI  29
SILVER CITY    CLEAR     45  16  31 NW14      29.95S

$$
NMZ407-409-411-412-231000-
SOUTHERN DESERTS

CITY           SKY/WX    TMP DP  RH WIND       PRES   REMARKS
LORDSBURG      FAIR      39  19  45 NW6       29.97S WCI  35
DEMING         CLEAR     48  19  31 W18G26    29.90F
HOLLOMAN AFB   CLEAR     40  18  40 SE8       29.80F WCI  35
T OR C         CLEAR     45  16  31 VRB3      29.82F

$$
NMZ519>523-231000-
CENTRAL VALLEYS/CENTRAL HIGHLANDS

CITY           SKY/WX    TMP DP  RH WIND       PRES   REMARKS
ALBUQUERQUE    MOCLDY    48  18  30 W7        29.79F
DOUBLE EAGLE   PTCLDY    41  17  38 SW14      29.80F
MORIARTY ARPT  PTSUNNY   42  18  38 W10       29.79F
CLINES CORNERS PTCLDY    37  18  46 W20G25    29.75F WCI  27
BELEN          FAIR      50  14  23 W20G28    29.81S
SOCORRO        NOT AVBL

$$
NMZ524>526-539-540-231000-
SOUTHCENTRAL MOUNTAINS

CITY           SKY/WX    TMP DP  RH WIND       PRES   REMARKS
RUIDOSO        CLEAR     45  16  31 NW10      29.81S

$$
NMZ527>531-231000-
NORTHEAST HIGHLANDS/NORTHEAST PLAINS

CITY           SKY/WX    TMP DP  RH WIND       PRES   REMARKS
LAS VEGAS      CLEAR     37  19  48 W12       29.70F WCI  29
RATON          CLEAR     40  20  44 NE6       29.63S
CLAYTON        CLOUDY    54  20  26 W21G31    29.53S

$$
NMZ532>537-231000-
EASTCENTRAL PLAINS

CITY           SKY/WX    TMP DP  RH WIND       PRES   REMARKS
TUCUMCARI        N/A     52  19  27 W17       29.60R
CANNON AFB     CLOUDY    46  18  31 SW12      29.74F
CLOVIS AIRPORT CLOUDY    54  18  24 W31G39    29.60S

$$
NMZ028-029-538-231000-
SOUTHEAST PLAINS

CITY           SKY/WX    TMP DP  RH WIND       PRES   REMARKS
ROSWELL        CLOUDY    48  23  37 W8        29.67F
CARLSBAD       PTCLDY    60  18  19 W30G39    29.66F
HOBBS          CLEAR     50  23  34 W14       29.69F


$$



USA.gov is the U.S. government's official web portal to all federal, state and local government web resources and services.